Regional Weather Roundup
Issued by NWS Newport/Morehead, NC

Current Version | Previous Version | Text Only | Print | Product List | Glossary On
Versions: 1 2 3 4 5 6 7 8 9 10 11 12 13 14 15 16 17 18 19 20 21 22 23 24 25 26 27 28 29 30 31 32 33 34 35 36 37 38 39 40 41 42 43 44 45 46 47 48 49 50
000
ASUS42 KMHX 041213
RWRMHX
WEATHER ROUNDUP FOR EASTERN NORTH CAROLINA
NATIONAL WEATHER SERVICE NEWPORT/MOREHEAD CITY NC
800 AM EDT WED MAY 04 2016

NOTE: "FAIR" INDICATES FEW OR NO CLOUDS BELOW 12,000 FEET
WITH NO SIGNIFICANT WEATHER AND/OR OBSTRUCTIONS TO VISIBILITY

NCZ015>017-031-032-045>047-102-103-041300-
NORTH COAST

CITY           SKY/WX    TMP DP  RH WIND       PRES   REMARKS
EDENTON        CLOUDY    65  65 100 N6        29.69R
ELIZABETH CITY CLOUDY    57  57 100 N15       29.67F FOG
KITTY HAWK     FOG       59  59  99 NE7       29.66R VSB 1/4
MANTEO         NOT AVBL

$$

NCZ045>047-081-094-103-104-041300-
CENTRAL COAST

CITY           SKY/WX    TMP DP  RH WIND       PRES   REMARKS
FRISCO         CLOUDY    67  66  97 W6        29.69R
SWANQUARTER    NOT AVBL

$$

NCZ095-097-098-100-101-041300-
SOUTHERN COAST

CITY           SKY/WX    TMP DP  RH WIND       PRES   REMARKS
BEAUFORT       LGT RAIN  68  64  87 SW12      29.68F
CEDAR ISLAND   NOT AVBL
JACKSONVILLE   PTSUNNY   67  64  90 SW7       29.68S
PINEY ISLAND   NOT AVBL
WILMINGTON     CLOUDY    67  64  90 SW3       29.68F


$$

NCZ011>013-027>030-043-044-078>080-089-090>093-098-041300-
COASTAL PLAIN

CITY           SKY/WX    TMP DP  RH WIND       PRES   REMARKS
AHOSKIE        DRIZZLE   60  59  97 CALM      29.69S
CLINTON        MOSUNNY   64  63  96 CALM      29.70R
ELIZABETHTOWN  CLOUDY    65  63  94 CALM      29.69F
GOLDSBORO      CLOUDY    63  63 100 NW7       29.68R
GREENVILLE     CLOUDY    63  63 100 N3        29.72R
HAVELOCK       TSTM      67  65  93 NW5       29.70R
KENANSVILLE    MOSUNNY   64  63  96 CALM      29.70R
KINSTON        NOT AVBL
NEW BERN       TSTM      64  62  93 W7        29.71S FOG
RICHLANDS      LGT RAIN  64  63  94 CALM      29.68F FOG
ROCKY MOUNT    CLOUDY    63  62  97 N7        29.69S
WASHINGTON     CLOUDY    62  62  98 CALM      29.69R FOG
WHITEVILLE     NOT AVBL

$$

AMZ130-135-150-152-154-156-158-170-250-252-270-ANZ085-086-088-633-658-670-041300-
MARINE OBSERVATIONS

STATION/POSITION TIME  TEMP    WIND        PRES    WAVE   SWELL
                       AIR SEA DIR/SP/G            HT/PER HT/PER
                 (UTC) (F)     (DEG/KT/KT) (MB)    (FT/S) (FT/S)
CHESAPEAKE LIGHT 1100   53      40/ 16/ 17 1005.4
64 E VA BEACH    1150   55 55   70/  8/  8 1004.7    4/ 7   3/ 7
DUCK             NOT AVBL
2 E DUCK         1111      58                N/A     3/ 8
OREGON INLET     1100   66 71  320/  6/  8 1003.8
13E OREGON INLT  1100      62                N/A     4/ 7   5/ 7
HATTERAS CG      1100   68 69  210/  4/  6 1004.4
DIAMOND BUOY     1150   71 72  220/ 16/ 19 1005.4    3/ 7   2/ 7
CAPE LOOKOUT     1200   69     250/ 10/ 12 1004.8
BEAUFORT LAB     1100   69 66  230/  5/ 13 1004.5
30 SE NEW RVR IN 1125      73                N/A     6/ 7
27 SE WRIGHTSVLE 1108   72 72  230/ 12/ 16   N/A
5 SE WRIGHTSVLE  1108   69 69  260/ 10/ 12 1006.1
225 S CAPE HAT   1150   68 74  300/ 23/ 29 1009.7    5/ 7   2/10
41 SE CHARLESTON 1150   73 74  260/ 12/ 14 1005.8    3/ 7   2/ 7

$$




USA.gov is the U.S. government's official web portal to all federal, state and local government web resources and services.